Regional Weather Roundup
Issued by NWS

Home | Current Version | Previous Version | Graphics & Text | Print | Product List | Glossary On
Versions: 1 2 3 4 5 6 7 8 9 10 11 12 13 14 15 16 17 18 19 20 21 22 23 24 25 26 27 28 29 30 31 32 33 34 35 36 37 38 39 40 41 42 43 44 45 46 47 48 49 50
000
ASUS43 KLOT 281303
RWRIL

ILLINOIS REGIONAL WEATHER ROUNDUP
NATIONAL WEATHER SERVICE CHICAGO/ROMEOVILLE IL
800 AM CDT FRI APR 28 2017

NOTE: "FAIR" INDICATES FEW OR NO CLOUDS BELOW 12,000 FEET WITH NO
SIGNIFICANT WEATHER AND/OR OBSTRUCTIONS TO VISIBILITY.

* THESE STATIONS ARE NOT UNDER NWS QUALITY CONTROL. THEY ALSO MAY NOT
  REPORT WEATHER SUCH AS PRECIPITATION OR FOG.

ILZ001-002-007-009-015-016-024-281400-
NORTHWEST ILLINOIS

CITY           SKY/WX    TMP DP  RH WIND       PRES   REMARKS
MOLINE         CLOUDY    44  34  67 E8        29.91R
STERLING*      CLOUDY    42  34  73 E5        29.95R
SAVANNA*       SUNNY     41  32  71 NE6       29.93R
$$

ILZ003-004-008-010-011-017-018-281400-
NORTH CENTRAL ILLINOIS

CITY           SKY/WX    TMP DP  RH WIND       PRES   REMARKS
ROCKFORD       MOSUNNY   42  31  64 VRB3      29.95R
FREEPORT*      SUNNY     38  32  78 CALM      29.95R
ROCHELLE*      SUNNY     41  34  76 CALM      29.94R
DE KALB*       PTSUNNY   41  33  71 CALM      29.94S
PERU*          MOSUNNY   43  35  73 NE6       29.95R
$$

ILZ005-006-012>014-019>023-281400-
NORTHEAST ILLINOIS

CITY           SKY/WX    TMP DP  RH WIND       PRES   REMARKS
CHICAGO-OHARE  CLOUDY    44  32  62 CALM      29.93S
CHICAGO-MIDWAY MOSUNNY   48  38  68 N3        29.94F
AURORA         MOSUNNY   45  37  73 NE3       29.94S
LANSING*       MOSUNNY   47  45  91 CALM      29.95S
WAUKEGAN       SUNNY     43  33  68 SW3       29.93R
DUPAGE AIRPORT CLOUDY    44  36  73 CALM      29.93S
WHEELING       MOSUNNY   44  35  70 S7        29.95R
MORRIS*        SUNNY     46  38  75 CALM      29.94R
NORTHERLY ISL    N/A     48  36  63 CALM        N/A
$$

LMZ740>746-281400-
SOUTHERN LAKE MICHIGAN

STATION/POSITION SKY/WX   TEMP    WIND        PRES    VSBY  WAVE
                          AIR SEA DIR/SP/G                  HT/PER
                          (F)     (DEG/KT/KT) (MB)    (MI)  (FT/S)
SOUTHERN BUOY              41 41  310/  6/  6 1013.5          2/ 4
HARRISON CRIB              47     160/  2/  4   N/A
BURNHAM HARBOR             48      CALM  /  7   N/A
CALUMET HARBOR             48      CALM  /  1 1013.5S
BURNS HARBOR               48        CALM     1014.9R
MICHIGAN CITY              46     210/  2/  3   N/A
MICHIGAN CITY 6N           47 46                N/A           1
ST. JOSEPH                 46 48  230/  6/  8 1015.4R         1/ 3
$$

ILZ025>027-034>036-040-047-049-050-058-095>099-281400-
WEST-CENTRAL ILLINOIS

CITY           SKY/WX    TMP DP  RH WIND       PRES   REMARKS
QUINCY         CLOUDY    50  49  96 E9        29.80F
GALESBURG*     CLOUDY    43  36  76 NE13      29.88F
MACOMB*        LGT RAIN  45  44  97 NE14      29.88R
JACKSONVILLE*  CLOUDY    51  49  91 SE12      29.85F
PITTSFIELD*    CLOUDY    52  51  97 E5        29.83F
$$

ILZ028>032-037-038-041>044-048-051>054-059>061-281400-
CENTRAL ILLINOIS

CITY           SKY/WX    TMP DP  RH WIND       PRES   REMARKS
PONTIAC        PTSUNNY   50  48  95 E6        29.91F
BLOOMINGTON    CLOUDY    48  46  93 SE9       29.90S
DECATUR        CLOUDY    51  48  89 SE12      29.91R
PEORIA         CLOUDY    49  46  90 NE7       29.88S
SPRINGFIELD    CLOUDY    53  49  86 SE13      29.89R
TAYLORVILLE    CLOUDY    51  47  89 SE9       29.90R
$$

ILZ033-039-045-046-055>057-062-063-281400-
EAST-CENTRAL ILLINOIS

CITY           SKY/WX    TMP DP  RH WIND       PRES   REMARKS
CHAMPAIGN      CLOUDY    50  46  86 SE13      29.91R
RANTOUL*       CLOUDY    51  48  89 SE7       29.92R
MATTOON        CLOUDY    50  47  89 SE7       29.92R
PARIS*         PTSUNNY   49  47  92 E8        29.93F
$$

ILZ079-100>102-281400-
SOUTHWEST ILLINOIS

CITY           SKY/WX    TMP DP  RH WIND       PRES   REMARKS
ALTON          CLOUDY    52  48  87 E10       29.85F
BELLEVILLE     CLOUDY    54  54 100 E10       29.83F
CAHOKIA*       LGT RAIN  54  50  86 SE8       29.84R
$$

ILZ064>066-069>071-074>076-080>082-084>086-088>090-092>094-281400-
SOUTH-CENTRAL ILLINOIS

CITY           SKY/WX    TMP DP  RH WIND       PRES   REMARKS
CARBONDALE     CLOUDY    55  52  89 E9        29.86F
CAIRO*         CLOUDY    56  53  88 E6        29.87F
EFFINGHAM*     CLOUDY    51  50  95 E9        29.95R
MARION         CLOUDY    55  55 100 SE12      29.88S
MT. VERNON     CLOUDY    54  52  94 E7        29.89F FOG
CENTRALIA*     CLOUDY    53  51  94 E8        29.86F
SALEM*         LGT RAIN  53  49  88 E5        29.89F
$$

ILZ067-068-072-073-078-083-087-091-281400-
SOUTHEAST ILLINOIS

CITY           SKY/WX    TMP DP  RH WIND       PRES   REMARKS
LAWRENCEVILLE  CLOUDY    51  48  89 E10       29.94R
FLORA*         RAIN      53  50  90 SE5       29.93R
FAIRFIELD*     CLOUDY    53  50  88 E6        29.91R
HARRISBURG*    CLOUDY    54  51  90 SE13      29.90F
ROBINSON*      CLOUDY    49  46  90 E7        29.94S
CARMI*         PTSUNNY   54  51  89 SE10      29.92S
$$

ABBREVIATIONS USED IN REMARKS
   TC - TEMPERATURE IN CELSIUS
  WCI - WIND CHILL INDEX
   HX - HEAT INDEX
  VSB - VISIBILITY
$$




USA.gov is the U.S. government's official web portal to all federal, state and local government web resources and services.